Wind_Speed
25 26 26 26 24 23 23 22 21 20 19 18 17 16 15 14 14 12 11 10 10 10 9 9 10 10 11 11 11 11 12 14 15 16 16 15 14 13 12 12 12 12 12 12 13 13 14 14 14 14 15 16 16 16 17 17 17 18 18 19 19 19 19 19 18 18 19 19 19 19 19 20 20 20 20 21 21 22 23 25 25 24 24 24 25 25 25 25
25 26 24 23 22 24 24 23 23 20 19 18 16 14 13 13 11 10 10 10 10 11 11 11 11 11 11 11 11 12 13 14 14 14 14 13 11 11 11 11 11 11 12 12 13 14 15 15 15 15 15 16 17 17 17 17 17 18 18 19 19 18 19 19 19 19 19 19 20 20 20 21 22 22 22 23 24 25 26 27 27 26 27 27 28 28 28 29
25 25 24 24 24 24 24 23 22 19 18 16 14 13 12 11 9 9 10 10 12 12 12 12 11 11 11 11 12 12 13 13 13 12 11 11 10 10 10 10 11 12 12 12 13 14 15 16 16 16 16 16 17 17 17 17 17 18 18 19 19 20 20 20 21 21 21 21 22 23 24 25 25 25 25 26 26 28 28 28 28 29 30 30 30 31 31 31
24 25 24 24 24 23 21 21 20 19 17 13 13 13 11 10 9 10 11 12 12 12 12 11 11 11 11 11 12 12 12 11 11 11 10 10 9 9 9 10 11 12 13 13 14 14 16 17 17 17 16 16 16 17 17 17 18 18 19 20 21 21 22 22 23 23 24 24 25 26 27 27 27 27 27 27 28 29 29 29 30 31 31 32 33 33 33 33
23 24 23 22 22 22 20 19 18 17 15 13 13 12 11 10 10 11 12 12 12 12 11 11 11 11 11 11 11 10 10 9 10 10 9 9 9 9 10 10 12 12 13 14 14 15 15 16 17 17 16 16 16 16 17 18 19 20 21 21 22 23 23 24 24 25 25 26 26 27 27 28 28 28 28 28 27 27 27 28 29 29 30 31 31 32 32 32
24 22 22 21 18 19 21 18 17 16 15 15 13 11 10 10 10 11 12 12 12 11 11 11 11 11 10 9 9 9 9 8 9 9 9 9 10 10 11 11 12 13 13 14 14 15 15 16 16 17 17 17 17 18 19 19 20 21 22 22 23 23 23 24 24 25 25 25 25 25 25 25 24 24 23 22 21 21 21 22 23 23 23 24 24 24 25 25
24 22 21 21 18 18 19 17 16 16 15 14 12 11 10 10 11 11 12 12 11 11 11 11 10 9 9 8 8 8 8 8 8 8 8 9 10 11 12 12 12 13 13 14 15 15 16 16 17 17 18 18 19 19 20 20 20 21 21 22 22 22 22 22 22 22 21 20 20 20 19 18 16 16 15 15 16 16 17 18 18 18 19 19 20 20 20 21
24 22 22 22 20 17 16 16 16 16 14 12 11 11 11 11 11 11 11 10 10 10 10 9 9 8 8 7 7 7 7 8 8 9 9 9 10 11 12 12 12 13 14 15 15 16 16 17 18 18 19 19 20 20 20 20 20 20 20 20 19 19 18 17 16 15 14 14 15 16 16 14 13 14 15 16 17 18 18 19 19 19 20 20 20 21 22 23
22 22 24 24 20 17 16 16 15 14 13 12 12 11 11 10 10 9 9 9 9 9 9 9 8 8 7 7 7 7 7 8 8 9 9 9 10 11 12 13 13 14 14 15 16 16 17 18 19 19 19 19 19 19 19 19 19 18 18 17 16 15 14 12 12 11 12 13 15 18 17 15 15 17 18 18 20 21 22 22 22 23 23 23 24 25 26 26
21 22 25 24 19 16 15 15 14 13 12 12 12 11 10 9 8 8 9 9 10 9 9 8 7 7 7 7 7 7 7 8 9 9 9 10 10 11 13 13 14 15 15 16 17 18 18 18 19 19 19 19 18 18 18 18 17 16 15 14 13 13 11 11 11 11 13 14 17 20 19 17 19 20 21 22 23 24 25 25 26 27 27 27 28 28 28 29
21 22 23 21 18 16 15 13 13 12 12 12 11 9 9 8 8 9 10 10 9 8 7 7 7 6 6 7 7 7 8 9 9 9 9 10 11 12 13 14 15 16 16 17 18 18 19 19 19 19 18 17 17 17 17 16 15 14 13 12 12 12 12 13 13 13 15 17 20 23 22 21 23 24 24 25 25 25 26 26 27 27 27 28 28 28 28 29
21 21 20 18 17 16 15 13 12 11 11 11 9 9 9 9 9 10 9 8 7 7 6 6 6 6 6 7 7 7 8 8 8 9 10 11 12 12 13 14 15 16 17 18 18 18 19 19 18 18 17 16 16 16 15 14 14 13 13 13 13 14 14 15 16 16 18 19 21 24 24 23 24 25 25 25 25 25 25 26 26 26 27 27 27 27 28 28
20 20 19 18 17 16 14 12 11 11 10 10 10 10 10 10 9 8 7 7 6 6 6 6 6 6 6 7 7 7 8 9 9 9 10 11 12 13 14 15 16 17 18 18 18 19 18 18 18 17 16 16 15 14 14 13 13 14 14 14 15 16 17 18 18 18 19 20 21 22 22 22 23 23 24 24 25 25 25 26 26 27 27 27 28 28 28 28
18 18 17 16 16 15 13 12 11 11 11 11 11 10 10 9 7 6 6 6 6 6 6 6 6 6 7 7 8 8 8 9 10 10 10 11 12 13 15 16 17 18 18 18 18 18 18 17 17 16 16 15 14 14 14 14 15 16 16 17 17 18 19 18 18 18 18 18 20 20 20 21 22 22 23 24 24 25 25 26 26 27 28 28 28 28 28 28
17 16 16 15 15 14 13 12 11 11 12 11 10 9 7 6 5 5 5 5 5 5 6 6 7 7 7 8 8 8 9 9 10 10 11 12 13 14 15 17 17 18 18 18 18 18 17 16 16 15 15 14 14 14 15 15 16 17 17 17 17 17 17 17 17 17 17 18 20 21 20 20 21 22 23 23 24 25 26 27 27 28 28 28 28 28 28 29
16 16 15 15 14 13 12 12 12 12 12 10 9 7 6 5 4 4 4 4 5 5 6 7 7 7 7 8 9 9 9 9 9 10 11 12 13 14 16 17 17 18 18 18 17 17 16 16 15 15 14 14 14 15 15 16 16 15 16 16 16 16 16 16 16 17 18 19 21 23 24 21 21 23 24 24 25 26 27 27 28 28 28 28 28 29 29 30
14 14 14 14 13 12 12 12 12 11 10 9 8 7 5 4 3 3 3 4 5 6 6 7 8 8 8 8 9 9 9 9 10 11 11 12 14 16 17 17 18 18 17 17 16 16 15 15 15 14 14 14 14 15 14 14 14 14 14 14 14 15 16 16 17 18 19 19 21 24 28 26 24 25 26 25 26 26 27 28 28 28 28 29 30 30 31 32
13 13 13 13 13 12 12 11 10 9 8 7 6 5 4 3 3 3 4 5 5 6 7 7 8 8 8 9 9 9 9 10 10 11 11 13 15 17 17 17 17 17 16 16 15 15 14 14 13 13 13 13 13 13 13 13 13 13 14 14 14 14 15 16 17 18 19 21 22 23 29 31 28 26 27 27 27 28 28 28 28 28 29 29 31 32 32 33
13 13 13 13 13 13 11 10 9 7 7 6 6 5 4 3 3 4 4 5 5 6 7 7 8 8 8 9 9 9 10 10 11 11 12 14 16 17 17 17 17 16 16 15 14 13 13 12 12 12 12 12 12 12 12 12 12 13 13 14 15 15 16 17 18 19 19 21 22 22 27 32 29 27 28 28 28 29 29 29 29 30 31 31 32 32 33 34
13 12 13 13 13 12 11 9 8 7 7 7 6 6 5 4 4 5 5 5 6 6 7 7 8 8 9 9 10 10 10 11 11 11 13 15 16 17 17 17 16 15 14 13 13 12 12 11 11 12 12 12 12 12 12 12 13 13 13 14 15 16 18 19 20 21 21 21 23 23 26 30 30 27 28 29 29 30 30 30 31 31 32 32 33 33 34 34
12 12 12 12 12 11 10 9 8 8 8 8 8 7 7 6 6 6 5 6 6 6 7 8 8 8 9 10 10 10 10 11 11 12 14 15 16 16 16 16 15 14 13 13 12 11 11 11 12 12 12 12 12 12 12 13 13 14 15 16 17 18 19 21 22 23 24 23 24 25 27 30 31 29 29 29 29 30 31 31 32 32 32 32 33 33 34 34
12 11 10 10 10 10 10 9 9 9 9 9 8 8 8 7 7 7 6 7 7 7 7 8 8 9 10 10 11 11 11 11 12 13 14 15 16 16 15 15 14 14 13 12 12 11 12 12 13 13 13 13 13 13 13 14 15 16 17 18 19 20 21 22 23 25 26 26 26 27 28 30 31 30 30 30 29 29 30 31 31 31 31 32 33 33 34 35
11 10 10 10 10 10 10 10 9 9 9 9 8 8 8 8 8 8 7 7 8 8 8 8 9 9 10 11 11 11 11 11 12 13 14 15 15 15 15 14 14 13 13 12 12 12 12 13 14 14 13 13 13 14 15 15 16 18 19 20 21 22 24 25 26 27 28 28 30 31 31 31 32 31 31 31 31 31 31 31 30 30 30 31 32 33 34 36
9 8 8 8 8 8 8 8 8 8 8 8 8 8 9 9 9 8 8 8 8 8 9 9 9 10 11 11 11 11 11 12 12 13 15 15 15 15 15 14 14 14 14 13 13 14 13 14 14 14 14 14 14 15 16 17 18 20 21 22 23 25 27 28 30 30 30 31 32 33 34 34 33 33 33 33 34 33 33 32 31 31 31 32 33 34 35 37
7 6 5 5 5 5 6 7 7 8 8 8 9 9 10 10 10 9 9 9 9 9 10 10 11 11 11 11 11 11 12 12 12 14 15 15 15 15 14 14 14 14 14 14 14 14 15 15 15 15 15 15 16 16 17 19 20 21 23 24 26 27 29 31 33 33 33 34 34 35 37 37 36 36 36 36 35 34 34 33 33 34 34 35 36 36 37 38
5 4 3 3 3 3 5 6 6 7 8 9 9 10 10 11 10 10 10 10 10 10 10 11 12 12 12 11 12 12 12 12 13 14 14 15 15 15 14 15 15 15 15 15 15 15 15 16 16 16 17 17 18 19 20 21 22 23 25 26 28 30 32 33 34 35 37 38 36 36 39 41 39 38 38 37 36 35 34 34 34 36 37 38 38 39 40 41
4 3 2 1 1 2 4 5 6 7 8 9 10 10 11 11 11 11 11 11 11 11 11 11 12 12 12 12 13 13 12 12 13 14 14 15 14 14 14 15 15 15 16 16 17 17 17 17 17 18 18 19 20 21 22 23 24 26 27 29 30 32 34 36 37 38 39 40 38 37 40 42 42 41 39 37 36 35 34 34 36 37 39 40 41 41 42 43
3 2 1 1 2 3 4 5 6 7 8 9 10 11 11 12 11 11 12 11 11 12 12 12 12 13 13 14 14 13 13 13 14 14 14 15 14 14 15 15 15 16 16 16 17 18 18 18 19 19 20 21 21 23 24 25 27 28 30 31 33 35 37 38 39 40 42 42 41 40 42 44 44 42 39 37 37 36 35 36 37 39 41 42 42 43 44 44
2 1 1 2 3 4 4 5 6 7 8 9 10 11 11 12 12 12 12 12 12 13 13 13 14 14 15 15 14 13 13 14 14 14 15 15 14 15 15 15 16 16 16 17 18 19 19 20 20 21 21 22 23 24 25 27 28 30 32 33 36 38 39 40 41 42 44 44 43 44 45 47 47 43 39 39 39 38 37 38 39 41 42 43 43 44 45 46
3 3 3 3 4 5 5 6 6 7 8 9 10 11 11 12 12 12 13 13 14 14 15 15 15 15 16 15 15 14 14 14 14 14 15 15 15 15 16 16 17 17 17 18 19 19 20 21 22 22 23 23 25 26 27 29 30 32 34 36 38 40 40 42 43 44 46 46 46 47 48 50 50 45 43 43 41 39 39 39 40 42 43 43 44 45 46 47
5 5 5 5 5 5 6 7 7 8 8 10 11 12 12 12 13 14 14 15 15 16 16 17 16 16 17 16 15 15 15 15 15 15 16 16 16 16 16 17 18 18 19 20 21 21 21 22 23 23 24 25 26 27 28 30 32 34 36 38 41 41 43 45 45 46 48 49 49 50 52 52 50 47 47 47 43 40 40 40 42 43 43 44 45 47 48 49
7 8 8 8 8 8 8 9 9 9 10 10 11 12 13 14 14 15 16 16 17 17 17 17 17 18 18 17 17 17 17 17 17 17 17 17 17 17 17 18 19 20 21 21 23 23 23 23 24 25 25 26 27 29 30 32 33 36 37 39 42 43 45 48 48 49 50 51 52 53 54 53 51 49 49 48 45 41 40 41 43 43 44 45 47 49 49 50
8 9 10 10 11 11 12 12 12 12 12 12 13 13 15 15 15 16 17 18 18 18 18 19 19 19 19 19 19 19 19 19 19 18 18 18 18 18 19 20 20 22 23 24 25 26 25 24 25 26 27 27 29 30 31 33 35 37 39 40 43 44 46 49 50 51 52 53 55 56 55 54 52 51 51 49 45 41 41 43 44 44 46 48 50 50 51 52
10 11 11 12 12 13 13 14 14 14 15 15 15 15 16 17 16 17 18 19 19 20 20 20 20 20 21 20 20 21 21 21 20 20 20 20 20 20 20 21 22 23 24 26 27 28 28 27 26 27 28 28 30 31 33 34 36 39 40 42 43 44 45 48 50 52 53 55 57 57 57 56 55 54 53 48 43 41 43 45 46 47 49 50 51 52 53 54
13 13 14 14 14 15 15 16 16 17 17 17 17 18 19 19 18 18 19 20 21 21 22 22 22 22 22 22 22 22 23 23 22 22 22 21 22 21 21 23 24 25 26 28 29 30 32 31 29 29 29 30 31 32 34 36 38 40 41 43 45 45 47 49 51 52 54 56 57 58 58 58 57 56 53 47 42 42 44 47 48 49 50 52 53 54 55 56
16 16 17 17 17 17 18 19 19 19 20 20 20 20 21 21 21 21 21 21 22 23 23 23 23 23 23 23 23 23 24 25 24 24 24 23 23 23 23 24 25 26 27 29 30 32 34 34 33 32 32 32 33 34 36 37 39 41 44 46 47 47 49 50 52 54 55 57 59 59 60 61 60 57 51 46 44 44 46 48 49 50 51 53 54 55 57 57
18 18 19 19 20 20 20 21 22 22 22 22 23 23 24 23 24 24 24 24 24 24 25 25 24 24 24 24 24 24 26 26 26 26 26 25 25 24 24 26 26 27 29 30 32 33 35 37 36 36 35 35 35 37 38 39 41 43 46 47 48 49 50 51 54 56 56 59 61 61 62 63 63 59 52 47 46 46 48 50 50 51 53 54 56 57 58 57
21 21 21 22 22 23 23 24 24 25 25 25 25 26 26 25 26 27 27 27 27 27 27 26 26 25 25 25 25 25 27 27 27 27 27 27 27 25 26 27 28 29 30 31 33 34 35 38 39 38 37 37 38 39 40 41 43 45 47 49 49 50 52 53 55 57 58 60 63 65 64 61 62 61 54 49 48 48 49 50 51 53 54 56 57 58 58 57
24 24 25 25 26 27 27 28 28 28 28 27 26 27 27 28 29 30 30 30 30 30 29 28 27 27 25 25 26 26 28 28 28 28 29 29 28 27 27 29 30 30 31 33 35 35 36 39 41 40 40 40 41 41 42 43 45 47 49 51 51 52 54 55 56 58 58 60 63 67 67 63 61 59 54 51 50 49 50 51 52 54 56 58 59 59 59 57
28 29 30 29 30 30 30 31 31 31 30 29 29 29 30 31 31 31 32 32 32 31 30 29 28 28 26 26 26 27 28 29 28 29 30 29 29 28 29 30 31 32 33 34 36 37 37 39 42 43 42 43 43 43 45 45 46 49 51 52 53 54 56 57 58 58 58 59 64 67 69 68 64 58 53 52 52 50 51 52 54 56 58 59 60 60 59 57
31 31 32 32 32 32 32 32 32 32 32 31 31 31 32 32 32 32 32 33 32 32 31 30 29 28 27 27 27 28 29 29 29 30 30 30 30 30 31 32 32 33 34 36 37 38 39 40 43 44 44 44 45 46 47 47 48 51 53 54 55 56 58 59 60 60 58 60 64 66 69 71 64 57 54 53 52 50 52 54 56 58 59 60 61 60 59 58
31 32 33 33 33 34 33 33 32 32 32 32 32 32 32 32 31 32 32 32 32 32 31 30 29 28 28 27 27 28 29 29 30 30 31 30 30 31 32 33 34 35 36 37 38 39 40 42 44 45 45 46 47 48 48 48 50 52 55 57 57 59 59 58 60 61 60 64 66 65 70 71 62 56 56 53 51 52 54 55 57 59 60 61 61 60 59 58
30 30 31 32 32 33 32 31 30 30 31 31 31 31 30 30 30 30 30 30 30 30 29 29 28 28 28 28 28 29 30 30 30 31 31 31 31 32 33 34 35 36 38 39 39 40 41 43 45 46 46 47 48 49 49 50 52 54 57 58 59 60 60 59 60 61 64 69 67 63 70 71 62 58 57 54 53 55 56 57 59 60 61 61 60 59 59 58
26 27 28 28 29 29 29 28 28 29 29 29 29 29 29 29 29 29 29 29 28 28 28 27 28 28 28 28 29 29 30 31 31 31 32 32 32 33 34 35 37 38 39 40 40 41 43 44 46 47 47 49 50 51 52 53 55 57 59 60 61 62 61 61 62 63 68 70 63 62 70 68 61 59 58 55 57 58 58 58 59 59 60 60 59 59 58 59
25 25 26 27 27 28 28 28 28 29 29 29 29 29 29 29 29 29 28 28 27 27 27 27 27 27 28 29 29 30 31 32 32 32 32 32 32 34 35 36 37 38 39 40 41 43 44 45 46 47 48 50 51 52 54 55 57 59 61 62 64 63 62 62 62 65 69 65 60 64 68 63 60 61 59 58 59 58 57 57 58 59 60 59 59 59 59 61
26 27 27 27 28 28 28 29 29 29 29 29 29 29 29 29 29 29 29 28 28 27 28 28 28 28 28 29 30 30 31 31 32 33 32 33 34 35 36 37 38 39 40 41 42 43 45 45 46 46 47 49 51 52 54 55 57 59 61 63 64 63 61 62 63 65 65 61 62 65 63 60 62 62 59 58 58 57 57 57 58 58 58 59 59 60 62 64
29 29 29 29 29 29 29 30 30 30 30 29 29 29 29 30 30 29 29 29 29 29 28 29 29 29 29 29 30 30 31 31 33 33 33 34 35 36 37 38 39 40 41 42 43 44 46 46 46 47 48 50 52 53 54 56 58 60 62 64 64 62 61 62 63 63 59 58 64 63 58 61 64 61 57 58 58 58 58 57 58 58 59 60 61 62 64 66
32 32 32 32 32 31 31 31 31 31 31 30 30 30 30 30 30 30 30 30 30 30 29 29 29 30 30 30 30 30 31 32 33 33 34 34 36 37 38 39 40 41 42 43 44 45 47 47 48 49 49 51 54 55 55 58 60 61 63 64 62 61 61 62 62 60 56 58 63 61 59 63 63 58 57 59 59 59 59 59 60 60 61 62 63 65 67 69
33 33 33 34 34 33 33 33 33 32 32 31 30 30 30 30 30 30 30 30 30 30 30 30 30 30 30 30 30 31 31 32 33 33 34 35 37 38 39 40 41 42 43 44 45 46 48 49 49 50 52 53 55 56 57 59 61 63 65 64 61 61 61 61 60 58 56 58 61 61 62 63 61 59 60 61 61 62 62 62 62 63 64 66 67 70 72 73
31 32 32 33 33 34 34 34 34 33 33 32 31 31 30 30 30 29 29 30 30 30 30 30 30 29 30 30 30 31 32 32 33 34 35 36 38 39 40 41 42 43 44 45 46 47 49 50 50 52 54 55 56 57 59 61 63 66 66 64 61 61 60 59 59 59 58 60 62 63 63 63 62 62 63 63 64 65 65 65 66 67 69 71 72 74 75 77
29 30 31 31 31 32 33 34 33 33 32 32 31 31 31 30 30 30 29 30 30 30 30 30 30 30 30 30 31 32 33 33 34 35 36 37 38 40 41 42 43 44 45 46 47 48 50 51 52 55 57 57 57 59 61 63 65 67 65 61 60 59 59 59 60 60 60 62 63 63 64 65 65 65 65 65 66 67 68 69 70 71 73 74 75 76 78 79
29 29 30 30 30 31 31 32 32 32 31 30 30 30 30 30 30 30 30 30 30 31 31 31 30 30 30 30 31 32 33 33 34 35 36 38 39 40 42 43 43 44 45 46 48 49 51 53 55 57 59 59 60 61 63 64 65 64 61 59 58 58 59 59 59 59 61 62 63 64 65 66 66 67 67 68 68 69 71 72 73 74 75 76 78 79 80 81
Wind_Direction
193 194 196 196 194 194 195 197 196 198 200 197 192 190 194 201 207 211 215 220 223 220 216 215 217 222 230 239 246 252 256 259 262 267 271 274 277 281 284 286 287 289 294 298 301 302 302 303 303 304 304 305 304 304 303 302 302 300 299 298 299 298 297 297 296 297 297 297 296 295 293 292 291 291 292 292 291 291 289 287 287 291 292 290 287 285 283 282
191 192 194 193 191 193 195 194 195 199 198 190 185 187 194 199 202 205 211 215 214 213 215 220 226 233 241 248 254 256 258 262 266 270 273 277 280 282 285 288 293 299 304 306 306 305 306 306 307 308 308 308 307 306 305 305 303 302 301 300 300 299 299 300 300 300 300 299 298 296 294 292 291 291 291 291 290 289 287 289 292 292 288 285 284 284 283 282
188 188 189 190 192 194 193 192 195 196 190 184 183 189 193 196 199 202 206 209 213 216 221 229 235 241 248 253 257 259 262 265 267 269 272 276 280 286 293 299 304 307 307 306 306 306 306 307 309 310 309 309 307 305 305 304 302 300 300 299 299 300 300 301 301 301 300 298 296 295 293 292 292 292 291 290 289 288 289 291 291 288 286 285 285 284 283 282
183 183 185 188 190 188 190 194 194 189 187 186 186 188 190 194 198 202 205 210 217 223 229 236 241 246 251 255 258 260 262 262 263 266 273 281 289 298 304 305 306 306 305 305 305 305 306 307 308 308 307 306 304 302 302 301 300 299 299 300 300 301 302 302 301 300 299 297 296 295 295 294 294 293 291 290 290 291 291 290 288 287 287 287 286 285 285 284
180 180 181 185 188 187 190 193 184 182 187 188 187 188 191 194 198 202 207 214 222 228 235 240 244 250 254 256 257 257 257 257 262 272 283 292 300 304 304 303 303 302 303 303 305 306 306 305 305 304 303 302 299 299 299 299 299 299 300 301 301 301 301 300 299 299 298 297 297 297 297 296 296 295 295 294 294 293 292 290 288 288 287 287 288 289 289 289
176 177 177 182 190 186 183 182 177 181 186 187 189 189 190 194 200 206 212 219 226 230 237 243 249 252 252 251 249 250 256 261 270 281 292 298 301 303 302 301 301 302 303 304 305 305 304 302 302 301 299 299 299 299 298 299 299 299 300 300 300 300 299 299 298 298 298 298 299 299 298 299 300 302 302 300 298 296 295 294 294 295 296 298 300 300 299 298
172 174 178 182 184 177 174 177 179 182 185 187 188 186 187 194 203 211 217 223 229 235 242 246 247 245 242 242 246 255 266 274 283 290 297 299 301 302 301 302 303 304 305 305 305 303 302 301 299 298 298 299 299 299 299 299 299 299 299 299 300 300 300 300 300 302 304 306 306 304 306 314 319 318 314 309 306 305 305 306 307 309 311 311 310 308 305 302
174 174 182 185 182 178 177 179 180 183 186 185 183 182 189 199 208 216 221 228 233 238 240 238 237 237 242 250 259 271 279 287 293 297 300 301 299 299 300 303 305 306 306 305 303 302 301 300 299 299 299 299 299 300 300 300 301 301 302 303 303 304 305 307 310 313 317 318 314 311 319 331 332 324 315 310 310 311 312 311 311 311 311 309 306 304 302 302
182 186 189 187 182 183 181 179 182 186 187 183 181 186 196 206 214 220 225 230 229 228 227 228 235 245 256 265 272 279 286 292 295 297 299 298 297 299 302 305 306 306 305 304 302 302 301 301 300 300 299 300 300 301 302 305 306 306 308 309 310 313 316 320 322 324 325 321 314 313 320 326 323 316 311 309 309 310 310 309 308 307 306 304 302 300 299 298
189 193 185 179 175 179 181 180 183 185 187 186 186 193 202 211 217 221 222 220 219 222 228 237 249 259 268 274 279 285 289 292 294 295 298 299 302 303 304 306 306 306 305 303 303 303 302 301 300 300 300 302 304 305 307 309 310 311 313 315 318 320 321 323 323 322 320 316 311 310 315 318 313 309 306 305 306 306 307 306 305 304 303 302 301 300 298 297
186 179 168 166 167 174 179 180 180 181 184 186 191 200 207 213 215 215 215 216 222 230 240 252 261 268 273 279 283 287 289 291 294 297 300 302 303 304 305 306 306 305 304 303 303 303 302 302 302 303 304 306 306 308 311 312 313 314 315 318 320 318 317 317 317 316 315 313 309 309 312 314 310 307 307 307 308 309 309 309 308 307 306 306 305 304 303 301
166 161 158 163 167 173 177 178 175 174 179 186 196 204 208 211 212 213 218 224 234 243 252 259 264 271 275 281 285 287 289 292 298 301 301 302 303 305 305 305 304 305 305 304 304 304 304 304 305 306 307 308 309 311 312 312 312 313 314 315 313 312 311 312 312 312 311 310 309 309 312 314 313 313 314 315 316 316 315 314 313 312 311 310 310 309 308 306
159 160 162 166 169 172 171 170 169 171 180 190 196 201 203 206 209 217 226 236 246 253 259 262 268 273 277 283 286 288 292 294 298 298 299 302 304 305 304 305 307 308 308 307 306 306 306 306 306 308 309 310 310 311 310 309 310 309 309 309 308 307 307 308 309 310 312 312 312 314 318 318 318 319 319 319 320 318 317 315 314 313 312 312 311 310 309 307
160 162 163 163 165 165 162 164 168 174 183 189 191 194 198 203 212 224 235 244 253 258 264 269 275 280 284 286 285 289 291 291 293 295 301 304 305 307 308 310 312 311 309 308 308 307 307 307 308 309 309 309 308 307 307 306 306 305 304 305 306 306 307 309 312 315 317 319 318 319 321 320 319 319 319 319 319 317 316 315 314 313 313 312 311 310 308 306
151 153 154 153 157 159 162 168 172 179 183 185 186 188 194 203 216 229 240 249 256 265 273 279 283 286 287 285 284 286 286 288 293 299 305 306 309 311 311 313 312 311 310 309 309 309 308 308 308 307 305 305 305 305 305 304 304 304 305 307 308 309 312 315 320 323 324 324 321 319 320 321 319 319 319 319 319 318 316 315 314 314 313 312 311 309 307 306
144 146 148 150 157 162 167 171 174 177 178 179 181 182 189 199 213 230 245 259 271 280 284 287 288 286 283 282 282 283 285 291 297 303 307 309 312 313 312 313 313 312 311 311 310 309 308 307 305 304 304 305 306 306 305 305 306 307 310 312 314 317 321 325 327 329 329 327 324 320 318 320 322 321 321 322 321 318 316 314 314 314 313 311 309 307 306 305
142 146 149 153 158 161 165 168 170 172 173 177 179 181 188 197 216 242 262 280 288 290 290 287 286 282 278 278 280 285 292 298 301 305 308 310 312 313 315 316 315 314 313 312 311 309 308 306 304 305 307 309 308 307 308 310 311 314 317 320 322 324 327 331 332 332 331 331 329 324 319 320 326 326 324 323 321 318 315 314 314 312 311 309 308 307 306 305
145 148 151 154 156 157 160 164 167 172 176 182 186 189 197 210 237 265 280 289 290 291 289 284 282 280 277 280 286 292 298 301 303 306 310 312 314 317 319 318 316 316 315 313 311 309 307 306 307 310 311 310 309 310 312 315 317 321 323 326 329 330 332 334 336 335 335 333 332 330 322 319 326 328 324 323 320 317 316 315 314 312 310 309 307 307 306 305
147 150 153 155 156 158 162 168 174 179 187 196 203 208 217 230 253 274 284 287 288 289 285 281 281 281 282 288 293 296 301 304 306 309 313 315 318 321 321 320 319 318 317 314 312 311 309 310 312 312 311 310 311 313 316 320 323 327 328 330 332 333 335 335 336 337 336 334 331 330 323 317 323 327 323 322 320 317 316 316 314 312 310 309 308 306 306 305
147 152 156 158 161 165 171 177 183 191 203 211 216 221 229 240 256 271 279 284 288 289 287 283 284 287 290 294 296 299 303 305 308 312 315 318 322 323 323 323 322 320 319 316 315 314 312 314 314 311 310 312 315 318 321 325 327 330 331 333 333 335 336 335 336 335 334 333 329 328 323 316 321 326 323 321 320 317 316 315 313 311 310 309 307 306 306 305
147 154 159 164 169 174 180 186 194 204 212 217 220 227 233 242 255 266 275 283 289 290 289 287 287 291 294 296 298 300 301 304 309 313 317 322 325 326 326 326 324 323 321 318 316 315 314 314 313 312 315 317 320 322 325 328 329 331 332 333 334 334 334 334 333 332 330 330 328 327 323 318 320 325 323 321 319 317 314 313 311 311 310 308 307 307 306 305
148 156 163 170 177 184 190 195 202 210 217 222 227 232 238 246 255 264 274 284 290 292 291 289 289 291 293 295 297 297 300 305 309 314 320 325 328 329 328 328 327 325 322 318 317 316 315 314 314 316 319 320 323 324 327 329 330 332 332 332 332 332 332 331 330 329 328 327 327 326 324 320 321 324 324 322 320 316 313 311 311 311 310 308 307 306 306 305
148 156 165 173 182 189 196 202 209 217 224 230 237 242 248 253 259 267 277 285 290 291 290 287 286 289 292 294 294 295 300 305 309 317 323 327 331 332 331 331 330 326 321 318 316 316 315 314 315 318 320 322 323 325 327 328 329 330 329 330 330 330 329 328 328 328 327 327 328 326 324 322 322 324 324 323 321 318 314 313 313 311 309 307 306 305 305 305
149 156 164 173 184 193 202 211 219 228 235 241 247 252 256 260 265 273 282 287 290 289 288 285 284 287 290 291 292 294 299 304 310 319 325 329 333 334 333 333 330 325 320 318 316 315 314 313 315 318 319 321 323 324 326 327 328 328 328 329 329 329 328 327 327 326 326 328 329 327 323 321 323 325 327 326 322 319 317 317 316 313 310 308 306 306 306 305
147 154 162 174 188 203 217 226 234 241 246 253 258 261 263 266 271 278 285 289 289 287 286 283 283 286 288 289 290 294 299 305 311 319 326 331 334 334 333 332 328 322 318 317 315 314 313 314 316 317 319 320 321 324 325 326 327 327 328 328 327 327 326 326 325 324 325 327 329 329 324 322 324 327 330 329 323 320 320 320 317 314 312 310 309 309 308 307
146 151 162 178 202 225 236 244 251 254 258 263 266 269 270 271 276 282 287 290 289 287 285 282 283 286 287 287 289 294 299 304 311 318 326 331 333 333 332 330 326 321 319 317 315 315 314 314 316 318 319 320 321 323 324 324 325 326 326 325 326 326 325 325 324 324 325 325 329 331 325 322 324 328 332 328 322 321 321 318 316 314 312 310 310 310 309 308
154 158 168 190 241 255 257 260 262 264 265 267 269 272 273 275 279 284 288 290 290 288 285 282 281 283 285 285 288 293 297 302 310 318 324 328 329 330 330 328 325 322 320 318 317 316 315 316 318 319 319 319 319 322 323 323 324 324 324 324 325 325 325 325 323 324 324 323 327 330 325 323 324 328 333 327 321 322 321 317 314 312 310 309 310 309 308 308
168 175 203 253 274 274 273 271 271 270 268 269 272 273 274 277 282 286 288 291 291 288 286 283 281 282 284 285 288 292 296 303 309 314 319 322 324 326 327 326 324 321 319 318 317 316 316 318 318 318 317 317 318 320 321 322 321 321 322 323 323 323 324 324 322 324 323 322 326 328 325 323 323 329 334 327 323 324 320 316 314 311 309 308 309 308 307 307
200 215 246 275 283 283 281 279 278 276 274 274 275 275 277 280 283 286 289 291 290 289 288 284 283 283 283 285 287 289 294 300 305 309 313 315 318 321 322 322 322 320 318 317 316 315 315 316 316 316 315 315 316 317 319 319 319 319 320 322 322 322 323 322 322 323 321 321 325 325 325 324 323 330 334 327 325 325 320 316 313 310 308 308 309 308 306 306
250 259 269 277 283 285 284 284 284 283 283 281 280 281 281 283 286 288 289 291 291 290 289 286 284 284 284 285 285 286 291 296 299 303 306 308 312 315 317 318 318 317 315 315 314 314 313 313 315 314 312 313 314 315 317 317 317 318 319 321 321 321 321 320 321 322 320 322 324 324 324 323 323 330 332 326 326 324 319 316 312 308 307 308 308 306 305 305
259 265 270 273 278 283 287 288 289 290 290 288 287 287 286 288 289 290 291 291 291 290 289 287 285 284 285 285 284 286 289 292 295 297 299 302 304 308 311 312 313 313 312 312 310 310 311 311 311 310 310 312 312 313 314 314 315 316 318 320 319 320 321 319 320 322 320 322 323 323 323 322 323 328 328 325 326 323 318 314 309 307 307 307 306 304 304 303
264 265 268 272 277 281 285 289 291 292 293 293 293 293 292 292 292 292 293 292 291 291 289 286 286 286 285 285 285 286 287 288 291 292 293 296 298 301 304 306 307 308 308 308 306 306 308 308 308 308 308 309 309 311 312 312 314 314 316 318 318 320 320 318 320 321 320 322 321 321 322 320 322 325 325 324 325 321 316 311 308 307 307 306 304 303 303 302
267 267 268 271 275 280 284 287 289 290 292 293 295 297 296 295 295 295 294 293 293 293 291 288 288 287 286 286 286 286 285 285 286 287 288 290 293 296 299 301 302 303 305 304 303 304 304 304 305 305 305 306 307 308 309 310 311 313 315 316 317 319 318 317 319 318 319 320 319 319 320 319 320 322 322 324 324 319 314 310 308 307 306 305 303 302 302 302
268 269 269 272 276 281 285 288 289 290 290 290 292 295 295 296 297 296 294 294 294 293 292 291 290 287 286 285 284 283 284 283 284 284 285 286 289 291 294 296 297 299 301 301 301 303 302 302 303 301 302 304 304 305 307 308 310 312 314 314 315 316 315 315 316 315 317 317 316 318 318 317 319 319 321 325 322 316 312 308 306 306 305 304 302 302 302 302
268 270 271 273 277 281 285 288 290 291 291 291 292 292 294 296 298 297 296 296 295 293 292 290 289 287 285 283 282 282 282 282 281 281 281 283 286 288 290 292 294 296 296 297 300 301 301 302 302 300 301 302 303 304 306 307 309 311 312 312 313 314 313 313 313 313 314 314 315 316 316 316 317 317 322 325 319 314 310 306 305 305 304 302 301 302 301 301
271 272 275 277 280 284 288 290 291 292 292 292 292 291 291 295 297 297 298 297 295 293 291 289 288 286 284 281 280 280 280 280 279 279 280 282 283 286 288 289 291 292 293 295 297 298 301 302 302 301 302 303 304 305 306 308 310 310 311 312 312 312 312 311 311 312 313 312 313 315 315 315 315 317 323 323 317 313 308 304 305 304 302 301 301 300 301 300
274 275 278 281 284 287 290 291 292 292 292 292 291 290 290 293 295 296 298 297 295 293 290 288 286 284 282 280 278 277 277 278 278 279 280 280 281 285 287 286 288 289 291 292 293 296 299 300 301 302 303 304 304 305 307 308 309 310 311 311 311 311 311 310 310 311 312 311 312 314 314 314 314 317 322 320 315 311 306 305 305 303 301 300 300 300 300 299
275 277 279 282 285 287 288 290 290 290 291 291 290 289 290 291 293 295 296 295 293 291 288 287 285 283 280 278 276 275 276 277 278 279 279 279 281 284 286 285 286 288 289 290 291 293 296 298 299 301 301 303 303 305 307 308 309 310 310 310 311 311 311 310 310 311 311 311 311 313 314 313 313 317 320 318 314 310 307 306 305 302 301 300 299 299 299 299
275 277 279 282 284 286 287 288 288 289 289 289 289 289 290 292 293 294 293 292 290 288 286 285 283 282 279 277 275 274 275 277 278 278 279 280 281 283 283 283 285 287 288 288 290 292 293 296 298 300 301 302 304 306 306 308 310 310 309 310 310 310 310 309 309 310 311 310 310 311 313 313 313 317 318 314 311 308 307 305 303 301 300 299 300 299 298 297
273 275 277 280 282 284 285 286 287 287 286 287 288 289 291 292 293 293 292 290 288 286 284 282 282 281 280 278 275 274 275 276 277 278 278 280 281 281 281 282 284 285 286 287 288 290 292 294 296 299 301 303 305 305 306 308 310 309 309 309 310 310 309 308 309 310 309 309 308 309 311 312 313 316 315 310 309 308 305 303 301 300 300 299 299 298 297 296
274 274 275 277 280 282 283 284 284 284 284 285 287 289 291 292 293 293 292 290 288 285 283 281 281 282 281 279 277 275 275 276 277 277 279 280 280 280 281 282 282 283 285 286 287 289 292 293 295 298 300 302 303 304 306 308 308 308 308 308 309 309 308 307 308 309 308 308 306 306 308 310 312 313 311 308 307 306 303 302 301 300 299 299 298 297 296 294
276 276 277 277 279 281 282 283 283 283 283 285 287 288 289 291 292 292 291 290 288 286 283 282 281 282 281 281 278 276 276 276 277 278 279 280 280 280 281 281 282 283 284 286 288 290 292 292 294 297 299 301 302 303 306 306 306 306 306 307 308 308 307 307 306 307 308 306 306 306 306 307 311 311 308 306 305 303 302 302 300 299 299 298 297 296 294 293
280 280 280 280 281 282 282 282 282 283 285 287 288 289 290 291 292 292 292 291 289 288 285 284 283 283 282 282 280 278 277 277 277 278 279 281 281 281 281 281 282 283 285 287 289 290 291 292 294 296 298 299 300 302 304 304 304 305 305 307 307 307 307 306 306 307 307 306 308 306 302 305 311 309 304 304 303 302 301 300 299 299 297 296 295 294 293 293
284 285 284 284 284 284 284 285 285 287 288 289 290 291 292 292 292 293 293 293 292 290 288 287 286 285 284 282 280 278 277 277 278 280 281 283 283 282 282 282 283 285 286 288 289 289 290 292 294 297 298 299 300 302 303 304 305 305 306 307 306 306 306 305 306 306 305 306 308 302 299 305 309 305 302 303 302 301 301 299 298 297 295 294 294 294 294 293
291 290 290 290 289 288 289 290 290 291 291 292 293 293 293 293 294 294 294 294 294 292 290 289 288 286 284 282 280 279 278 279 281 283 284 284 284 283 283 284 285 287 287 288 288 289 291 293 295 297 299 300 302 302 302 304 304 305 306 305 305 305 304 305 306 304 303 305 303 299 300 305 305 302 302 303 302 301 300 297 296 295 294 295 295 294 294 293
297 296 295 294 293 293 293 293 292 293 294 294 295 295 294 294 294 294 294 294 294 293 292 291 289 287 285 283 282 281 280 281 282 284 284 284 284 285 286 287 287 288 288 289 290 290 291 293 294 296 297 299 300 300 301 302 303 303 304 303 303 303 304 305 303 302 303 302 299 300 302 303 302 303 303 302 301 299 297 296 295 295 295 295 294 294 293 292
295 295 295 295 295 294 294 293 293 293 293 294 294 294 294 293 293 293 293 293 294 293 293 292 291 289 288 286 284 283 282 282 282 283 284 285 286 287 288 289 289 289 290 291 291 291 292 293 294 295 296 298 298 299 301 301 302 303 303 303 303 303 304 303 301 301 302 299 298 302 302 300 302 303 301 300 299 297 296 296 296 295 295 294 293 293 292 292
293 293 292 292 293 293 292 292 292 292 292 292 292 293 292 292 292 292 291 292 293 293 292 292 292 291 290 288 287 285 283 282 283 284 285 286 287 288 289 289 290 291 291 291 292 292 293 294 294 295 296 297 298 299 301 301 302 303 303 303 303 304 303 301 301 302 301 297 298 301 300 300 302 301 299 299 297 297 297 297 296 295 294 294 293 292 292 292
296 295 294 292 292 292 292 291 291 291 291 291 291 291 292 292 292 291 291 291 292 292 292 291 291 291 290 289 288 286 284 284 284 285 285 286 287 288 288 289 290 290 291 291 292 293 293 294 295 295 296 297 299 300 301 301 303 304 303 303 304 303 302 302 302 302 299 297 299 301 300 301 302 300 300 300 299 299 299 297 297 296 295 294 294 293 293 293
302 299 298 296 294 292 291 291 292 292 292 292 292 292 293 292 292 292 292 291 291 292 292 292 291 291 289 288 287 286 285 285 286 285 286 287 287 287 288 289 290 290 291 292 293 294 295 296 297 297 297 299 301 301 301 303 303 304 304 304 304 303 303 303 302 301 299 300 302 302 302 303 303 302 303 303 302 302 301 300 299 297 297 296 295 295 294 294
311 307 303 301 298 294 292 291 291 292 293 293 293 294 293 294 294 294 294 293 292 292 292 291 291 290 289 288 287 286 286 286 286 286 288 288 288 289 290 290 291 292 293 294 295 296 297 298 299 299 300 301 302 301 302 303 304 304 305 304 304 304 304 304 303 303 303 304 305 305 304 305 305 306 305 304 304 303 302 301 299 298 298 297 296 296 295 295
318 315 311 306 302 299 295 291 290 291 292 293 294 294 294 295 295 294 294 294 293 293 292 292 291 291 290 289 288 288 287 287 288 288 289 290 290 290 291 292 293 294 295 296 297 298 299 299 300 300 301 302 303 302 303 304 305 305 305 305 305 305 305 305 305 306 306 307 307 306 306 306 307 306 305 304 304 302 301 300 299 298 298 297 296 296 295 295
Height
5781 5783 5785 5787 5789 5792 5794 5797 5799 5801 5802 5804 5805 5806 5807 5808 5809 5810 5811 5811 5811 5812 5813 5813 5814 5815 5815 5815 5816 5816 5816 5816 5816 5816 5815 5815 5815 5814 5813 5812 5811 5811 5810 5809 5808 5807 5807 5806 5805 5805 5804 5803 5802 5802 5801 5800 5800 5799 5798 5797 5797 5796 5795 5794 5793 5792 5791 5790 5790 5789 5788 5787 5786 5785 5784 5783 5782 5781 5779 5778 5778 5778 5777 5776 5776 5775 5774 5774
5780 5782 5785 5787 5790 5792 5794 5796 5798 5800 5802 5803 5804 5805 5806 5808 5809 5809 5810 5810 5811 5811 5812 5813 5813 5814 5814 5814 5814 5814 5814 5814 5814 5814 5814 5813 5813 5812 5811 5810 5809 5809 5808 5807 5806 5805 5805 5804 5804 5803 5802 5801 5801 5800 5799 5799 5798 5797 5796 5795 5795 5794 5793 5792 5791 5790 5789 5788 5787 5786 5785 5784 5783 5783 5782 5781 5779 5778 5777 5776 5775 5775 5774 5773 5772 5771 5771 5770
5780 5782 5785 5787 5789 5791 5793 5795 5797 5799 5801 5802 5804 5805 5806 5807 5808 5808 5809 5809 5810 5811 5811 5812 5813 5813 5813 5813 5813 5813 5813 5813 5813 5813 5812 5812 5811 5810 5809 5808 5807 5807 5806 5805 5805 5804 5803 5802 5802 5801 5801 5800 5799 5798 5797 5797 5796 5795 5795 5794 5793 5792 5791 5790 5789 5788 5787 5786 5785 5784 5783 5782 5781 5780 5779 5778 5777 5775 5774 5774 5773 5771 5770 5769 5768 5767 5767 5766
5780 5782 5785 5787 5789 5791 5793 5795 5797 5799 5800 5802 5803 5804 5805 5806 5807 5807 5808 5808 5809 5810 5811 5811 5812 5812 5812 5812 5812 5812 5812 5812 5812 5811 5811 5810 5809 5808 5807 5807 5806 5805 5805 5804 5803 5803 5802 5801 5800 5800 5799 5798 5797 5797 5796 5795 5794 5794 5793 5792 5791 5790 5789 5788 5787 5785 5784 5783 5782 5781 5780 5779 5778 5777 5776 5775 5774 5773 5772 5771 5769 5768 5766 5765 5764 5763 5762 5762
5781 5783 5785 5787 5789 5790 5793 5795 5796 5798 5800 5801 5802 5803 5804 5805 5806 5806 5807 5808 5809 5809 5810 5810 5810 5810 5811 5811 5811 5811 5811 5811 5810 5810 5809 5808 5807 5807 5806 5805 5805 5804 5803 5802 5802 5801 5800 5800 5799 5798 5797 5797 5796 5795 5794 5794 5793 5792 5791 5790 5789 5788 5786 5785 5784 5783 5782 5781 5779 5778 5777 5776 5775 5774 5772 5772 5771 5770 5768 5766 5765 5764 5763 5762 5761 5760 5759 5758
5781 5783 5785 5787 5789 5790 5792 5794 5796 5797 5799 5800 5801 5802 5803 5804 5805 5806 5807 5807 5808 5809 5809 5809 5809 5809 5809 5810 5810 5810 5810 5809 5809 5808 5807 5806 5806 5805 5805 5804 5803 5802 5802 5801 5800 5800 5799 5798 5797 5797 5796 5795 5795 5794 5793 5792 5791 5790 5789 5788 5786 5785 5784 5783 5781 5780 5779 5778 5777 5775 5774 5773 5772 5771 5770 5768 5767 5766 5765 5763 5763 5762 5761 5760 5758 5757 5756 5755
5780 5783 5785 5787 5789 5790 5792 5794 5795 5797 5798 5800 5800 5801 5802 5803 5804 5805 5806 5807 5807 5808 5808 5808 5808 5808 5808 5809 5809 5808 5808 5807 5807 5806 5806 5805 5804 5804 5803 5803 5802 5801 5800 5800 5799 5799 5798 5797 5796 5795 5795 5794 5793 5792 5791 5790 5789 5788 5787 5786 5784 5783 5781 5780 5779 5777 5776 5775 5774 5772 5771 5771 5770 5769 5767 5766 5765 5764 5763 5762 5761 5760 5759 5758 5757 5755 5754 5753
5780 5783 5785 5787 5789 5790 5792 5794 5795 5797 5798 5799 5800 5801 5802 5803 5804 5805 5805 5806 5806 5807 5807 5807 5807 5807 5807 5807 5807 5807 5806 5806 5805 5805 5804 5804 5803 5803 5802 5801 5801 5800 5799 5799 5798 5797 5797 5796 5795 5794 5793 5792 5791 5790 5789 5788 5787 5786 5785 5783 5782 5780 5779 5778 5776 5775 5774 5773 5772 5770 5770 5770 5769 5767 5765 5764 5763 5762 5761 5760 5759 5759 5758 5756 5755 5754 5752 5751
5780 5782 5784 5787 5789 5791 5792 5794 5795 5797 5798 5799 5799 5800 5801 5802 5803 5804 5805 5805 5806 5806 5806 5806 5806 5806 5806 5806 5806 5805 5805 5804 5804 5804 5803 5803 5802 5802 5801 5800 5799 5799 5798 5798 5797 5796 5795 5794 5793 5792 5791 5790 5789 5788 5787 5786 5785 5783 5782 5781 5779 5778 5777 5776 5774 5773 5772 5771 5769 5768 5768 5768 5767 5765 5764 5762 5761 5760 5759 5758 5758 5757 5755 5754 5753 5752 5751 5749
5780 5782 5784 5787 5789 5791 5793 5794 5795 5796 5797 5798 5799 5800 5801 5802 5803 5803 5804 5805 5805 5805 5805 5805 5805 5805 5805 5805 5804 5804 5804 5803 5803 5803 5802 5802 5801 5800 5800 5799 5798 5798 5797 5796 5795 5794 5793 5792 5792 5791 5789 5788 5787 5786 5785 5784 5782 5781 5780 5779 5778 5776 5775 5774 5773 5772 5771 5770 5768 5766 5766 5767 5765 5763 5762 5761 5760 5759 5757 5756 5755 5754 5752 5751 5750 5749 5748 5746
5780 5782 5785 5787 5789 5791 5793 5794 5795 5796 5797 5798 5799 5800 5801 5802 5802 5803 5804 5804 5805 5804 5804 5804 5804 5804 5804 5803 5803 5803 5803 5802 5802 5802 5801 5800 5800 5799 5798 5798 5797 5797 5796 5795 5794 5793 5792 5791 5790 5789 5787 5786 5785 5784 5783 5782 5781 5780 5779 5778 5776 5775 5774 5773 5772 5771 5769 5768 5766 5764 5764 5764 5762 5761 5759 5758 5757 5756 5755 5753 5752 5750 5749 5748 5747 5745 5744 5743
5781 5783 5785 5788 5789 5791 5793 5794 5794 5795 5796 5797 5798 5800 5801 5802 5802 5803 5803 5803 5803 5803 5803 5803 5803 5803 5802 5802 5802 5802 5802 5801 5801 5801 5800 5799 5799 5798 5797 5797 5796 5796 5794 5793 5792 5791 5790 5789 5788 5787 5786 5784 5783 5782 5781 5780 5779 5778 5777 5776 5775 5774 5773 5771 5770 5769 5767 5766 5764 5762 5761 5761 5759 5758 5756 5755 5754 5753 5752 5750 5749 5747 5746 5745 5743 5742 5741 5739
5782 5784 5786 5788 5789 5791 5792 5793 5794 5795 5796 5797 5798 5800 5801 5802 5802 5802 5803 5803 5803 5803 5802 5802 5802 5802 5801 5801 5801 5801 5801 5800 5800 5800 5799 5799 5798 5797 5796 5796 5795 5794 5793 5792 5791 5789 5788 5787 5786 5785 5784 5782 5781 5780 5780 5779 5778 5777 5776 5775 5774 5772 5771 5770 5768 5767 5765 5763 5762 5760 5759 5758 5756 5755 5754 5753 5752 5750 5749 5748 5746 5745 5743 5742 5741 5739 5738 5736
5782 5784 5786 5787 5789 5790 5791 5792 5793 5794 5796 5797 5798 5799 5800 5801 5801 5802 5802 5802 5802 5802 5801 5801 5801 5801 5801 5801 5800 5800 5800 5799 5799 5799 5798 5797 5797 5796 5795 5794 5793 5792 5791 5790 5789 5788 5786 5785 5784 5783 5782 5781 5780 5779 5778 5777 5776 5775 5774 5773 5772 5770 5769 5768 5766 5764 5763 5761 5760 5758 5757 5756 5754 5753 5752 5751 5750 5748 5747 5745 5743 5742 5741 5739 5738 5736 5735 5733
5782 5784 5786 5787 5788 5789 5790 5792 5793 5794 5796 5797 5798 5799 5800 5800 5801 5801 5801 5801 5801 5801 5801 5800 5800 5800 5800 5800 5800 5799 5799 5799 5798 5797 5797 5796 5795 5795 5794 5793 5792 5791 5789 5788 5787 5786 5785 5784 5783 5782 5781 5780 5779 5778 5777 5776 5775 5774 5773 5771 5770 5769 5767 5766 5764 5762 5761 5759 5757 5756 5755 5754 5753 5751 5750 5749 5748 5746 5744 5742 5741 5739 5738 5736 5735 5733 5731 5730
5783 5784 5785 5787 5788 5789 5790 5792 5793 5795 5796 5797 5798 5799 5799 5800 5800 5800 5800 5800 5800 5800 5800 5800 5800 5800 5800 5799 5799 5799 5798 5798 5797 5796 5796 5795 5794 5794 5793 5792 5790 5789 5788 5787 5785 5784 5783 5782 5781 5780 5779 5778 5777 5776 5775 5774 5773 5772 5771 5770 5768 5767 5765 5764 5762 5761 5759 5758 5756 5754 5752 5752 5751 5749 5748 5747 5745 5744 5741 5740 5738 5737 5735 5733 5732 5730 5728 5727
5783 5784 5785 5787 5788 5790 5791 5792 5794 5795 5796 5797 5798 5799 5799 5800 5800 5800 5800 5799 5799 5799 5799 5799 5799 5799 5799 5799 5798 5798 5797 5797 5796 5795 5795 5794 5793 5792 5791 5790 5789 5787 5786 5785 5784 5783 5782 5781 5780 5779 5778 5777 5776 5775 5774 5773 5772 5770 5769 5768 5767 5765 5764 5762 5761 5759 5758 5756 5754 5752 5749 5748 5749 5747 5745 5744 5742 5740 5738 5737 5735 5734 5732 5730 5728 5726 5725 5723
5783 5785 5786 5787 5789 5790 5792 5793 5794 5795 5797 5797 5798 5798 5799 5799 5799 5799 5799 5799 5799 5799 5799 5798 5798 5798 5798 5798 5797 5797 5796 5796 5795 5794 5794 5793 5792 5791 5790 5788 5787 5785 5784 5783 5782 5781 5780 5779 5778 5777 5776 5775 5774 5773 5772 5771 5770 5769 5768 5767 5765 5764 5762 5761 5760 5758 5756 5754 5753 5751 5747 5744 5745 5744 5742 5741 5739 5737 5735 5734 5732 5730 5729 5727 5725 5723 5721 5719
5784 5786 5787 5788 5790 5791 5792 5794 5795 5796 5796 5797 5797 5798 5798 5798 5799 5799 5799 5799 5798 5798 5798 5798 5798 5798 5797 5797 5796 5796 5795 5794 5794 5793 5792 5791 5790 5789 5788 5786 5785 5784 5783 5781 5780 5780 5779 5778 5777 5776 5775 5774 5773 5772 5771 5770 5769 5767 5766 5765 5763 5762 5761 5759 5758 5757 5755 5753 5751 5749 5746 5742 5742 5742 5740 5738 5736 5734 5732 5730 5729 5727 5725 5723 5721 5719 5717 5715
5786 5787 5788 5789 5790 5791 5793 5794 5795 5795 5796 5797 5797 5797 5798 5798 5798 5798 5798 5798 5798 5797 5797 5797 5797 5796 5796 5795 5795 5794 5794 5793 5792 5792 5791 5790 5789 5787 5786 5785 5783 5782 5781 5780 5779 5778 5777 5776 5776 5775 5774 5773 5772 5770 5769 5768 5767 5766 5765 5764 5762 5761 5759 5757 5756 5755 5753 5751 5749 5748 5745 5741 5740 5740 5737 5735 5733 5731 5728 5727 5725 5723 5721 5719 5717 5715 5713 5711
5786 5788 5789 5790 5791 5792 5793 5794 5794 5795 5796 5796 5796 5797 5797 5797 5797 5797 5797 5797 5797 5796 5796 5796 5795 5795 5794 5794 5793 5793 5792 5792 5791 5790 5789 5788 5787 5785 5784 5783 5782 5781 5780 5779 5778 5777 5776 5775 5774 5773 5772 5771 5770 5769 5768 5767 5765 5764 5763 5762 5761 5759 5758 5756 5754 5752 5751 5749 5747 5746 5743 5740 5738 5737 5735 5733 5731 5728 5725 5723 5721 5719 5717 5715 5713 5711 5709 5707
5788 5788 5789 5791 5791 5792 5793 5794 5794 5795 5795 5796 5796 5796 5796 5796 5797 5796 5796 5796 5795 5795 5794 5794 5794 5793 5793 5792 5792 5792 5791 5791 5790 5789 5788 5787 5785 5784 5783 5781 5780 5779 5778 5777 5777 5776 5775 5774 5773 5772 5771 5770 5769 5767 5766 5765 5764 5762 5761 5760 5759 5757 5756 5754 5753 5751 5749 5747 5745 5743 5740 5738 5735 5734 5732 5730 5728 5725 5723 5720 5718 5716 5713 5711 5709 5707 5705 5703
5789 5790 5791 5791 5792 5793 5793 5794 5794 5794 5795 5795 5795 5795 5796 5796 5795 5795 5795 5794 5794 5793 5793 5793 5792 5792 5792 5791 5791 5791 5790 5789 5788 5787 5786 5785 5784 5782 5781 5780 5779 5778 5777 5776 5775 5774 5774 5773 5772 5770 5769 5768 5767 5766 5765 5763 5762 5761 5759 5758 5756 5755 5753 5751 5750 5748 5746 5744 5742 5739 5737 5735 5733 5731 5730 5727 5724 5721 5719 5717 5715 5712 5710 5708 5706 5704 5701 5699
5790 5790 5791 5792 5792 5792 5793 5793 5793 5794 5794 5794 5794 5795 5795 5795 5794 5794 5793 5793 5793 5792 5791 5791 5791 5791 5791 5790 5790 5789 5789 5788 5787 5786 5785 5783 5782 5781 5779 5778 5777 5777 5776 5775 5774 5773 5772 5771 5770 5769 5768 5767 5765 5764 5763 5762 5760 5759 5757 5756 5754 5752 5750 5748 5746 5745 5743 5741 5739 5736 5732 5731 5729 5728 5726 5723 5719 5716 5714 5712 5710 5708 5706 5704 5702 5700 5698 5695
5790 5790 5791 5791 5792 5792 5792 5792 5793 5793 5793 5793 5794 5794 5794 5794 5793 5793 5792 5792 5791 5791 5790 5790 5789 5789 5789 5789 5789 5788 5787 5786 5785 5784 5783 5782 5780 5779 5778 5777 5776 5775 5774 5774 5773 5772 5771 5769 5768 5767 5766 5765 5764 5762 5761 5760 5758 5757 5755 5753 5751 5750 5747 5745 5743 5741 5739 5737 5736 5733 5728 5725 5725 5723 5721 5718 5715 5712 5710 5707 5705 5703 5700 5698 5696 5694 5692 5690
5790 5790 5790 5791 5791 5791 5792 5792 5792 5792 5792 5793 5793 5793 5793 5793 5792 5792 5791 5791 5790 5789 5789 5788 5788 5788 5788 5788 5787 5786 5785 5785 5783 5782 5781 5780 5779 5778 5777 5776 5775 5774 5773 5772 5771 5770 5769 5768 5767 5765 5764 5763 5762 5760 5759 5757 5756 5755 5753 5751 5749 5747 5745 5742 5740 5737 5735 5733 5732 5730 5725 5721 5720 5719 5718 5714 5710 5708 5706 5704 5701 5698 5695 5693 5690 5688 5686 5683
5790 5790 5790 5790 5791 5791 5791 5791 5791 5792 5792 5792 5792 5792 5792 5792 5791 5790 5790 5790 5789 5788 5787 5787 5787 5786 5786 5786 5785 5784 5784 5783 5782 5781 5779 5778 5777 5776 5775 5774 5773 5772 5771 5770 5769 5768 5767 5766 5765 5763 5762 5761 5760 5758 5757 5755 5753 5752 5750 5748 5746 5744 5741 5739 5736 5734 5731 5729 5728 5727 5722 5718 5716 5715 5714 5710 5707 5705 5703 5700 5697 5694 5691 5688 5686 5683 5680 5678
5790 5790 5790 5790 5790 5791 5791 5791 5791 5791 5791 5791 5791 5791 5791 5790 5790 5789 5788 5788 5788 5787 5786 5786 5785 5785 5784 5784 5783 5782 5781 5780 5780 5779 5778 5777 5776 5775 5774 5773 5772 5771 5770 5769 5767 5766 5765 5764 5763 5761 5760 5759 5757 5756 5754 5752 5751 5749 5747 5745 5743 5740 5738 5735 5733 5730 5727 5724 5724 5722 5719 5714 5711 5711 5710 5705 5702 5700 5698 5695 5692 5689 5686 5683 5681 5678 5676 5673
5790 5790 5790 5790 5790 5790 5790 5790 5790 5790 5790 5790 5790 5790 5790 5789 5788 5788 5787 5787 5786 5785 5784 5784 5784 5783 5783 5782 5781 5780 5779 5778 5778 5777 5776 5775 5774 5773 5772 5771 5770 5769 5768 5767 5766 5764 5763 5762 5760 5759 5758 5756 5755 5753 5752 5750 5748 5746 5744 5742 5739 5737 5734 5731 5729 5726 5723 5720 5719 5717 5714 5710 5706 5706 5705 5701 5698 5696 5692 5689 5686 5683 5680 5678 5675 5673 5670 5668
5790 5790 5790 5790 5790 5790 5790 5790 5790 5790 5790 5789 5789 5789 5788 5788 5787 5786 5786 5785 5784 5784 5783 5782 5782 5781 5780 5780 5779 5778 5777 5776 5775 5775 5774 5773 5772 5771 5770 5769 5768 5767 5766 5765 5763 5762 5761 5760 5758 5757 5755 5754 5752 5751 5749 5747 5745 5743 5740 5738 5736 5733 5731 5727 5725 5723 5718 5715 5714 5711 5708 5704 5701 5700 5699 5696 5694 5691 5687 5684 5681 5677 5675 5672 5670 5667 5665 5663
5790 5790 5790 5790 5790 5789 5790 5790 5789 5789 5789 5788 5788 5787 5787 5786 5785 5785 5784 5783 5783 5782 5781 5780 5780 5779 5778 5777 5777 5776 5775 5774 5773 5773 5772 5771 5770 5769 5768 5767 5766 5765 5763 5762 5761 5760 5759 5757 5756 5755 5753 5751 5750 5748 5746 5744 5742 5739 5737 5735 5732 5729 5726 5722 5720 5718 5713 5710 5708 5705 5703 5699 5696 5696 5693 5690 5689 5686 5682 5679 5676 5672 5670 5667 5664 5662 5659 5657
5789 5789 5789 5789 5789 5789 5789 5789 5788 5788 5787 5787 5786 5786 5785 5784 5784 5783 5782 5781 5781 5780 5779 5778 5778 5777 5776 5775 5774 5774 5773 5772 5771 5770 5769 5769 5768 5767 5766 5765 5764 5762 5761 5760 5758 5757 5756 5755 5754 5752 5750 5749 5747 5745 5743 5741 5739 5736 5734 5731 5728 5725 5722 5717 5715 5712 5709 5706 5702 5700 5697 5694 5692 5692 5689 5686 5684 5681 5677 5674 5670 5667 5665 5662 5659 5656 5653 5651
5789 5789 5789 5789 5788 5788 5788 5787 5787 5786 5786 5785 5785 5784 5783 5782 5782 5781 5780 5779 5779 5778 5777 5776 5775 5774 5773 5773 5772 5771 5770 5770 5769 5768 5767 5766 5765 5765 5764 5762 5761 5760 5758 5757 5755 5754 5753 5752 5751 5749 5748 5746 5744 5742 5740 5738 5736 5733 5731 5728 5725 5722 5718 5714 5711 5708 5704 5701 5697 5694 5692 5689 5687 5687 5685 5683 5679 5675 5672 5668 5664 5662 5659 5655 5652 5649 5646 5644
5788 5788 5788 5788 5787 5787 5786 5786 5785 5785 5784 5784 5783 5782 5781 5780 5780 5779 5778 5777 5776 5775 5774 5773 5773 5772 5771 5770 5770 5769 5768 5767 5766 5765 5764 5763 5763 5762 5761 5760 5758 5757 5755 5754 5752 5751 5749 5749 5749 5747 5745 5744 5742 5740 5737 5735 5733 5730 5728 5724 5722 5720 5715 5711 5708 5705 5702 5698 5692 5690 5687 5684 5682 5681 5680 5679 5675 5671 5667 5663 5659 5656 5653 5649 5645 5643 5639 5636
5787 5787 5786 5786 5786 5785 5784 5784 5783 5783 5782 5782 5781 5780 5779 5778 5777 5776 5775 5774 5773 5772 5771 5770 5770 5769 5768 5768 5767 5766 5765 5764 5764 5763 5761 5761 5760 5759 5758 5757 5755 5754 5752 5750 5749 5747 5745 5745 5745 5743 5742 5741 5738 5737 5734 5731 5729 5726 5724 5721 5718 5716 5711 5707 5704 5701 5698 5694 5689 5685 5681 5679 5678 5675 5675 5674 5670 5666 5662 5657 5654 5650 5647 5643 5639 5636 5633 5629
5785 5785 5785 5784 5784 5783 5783 5782 5781 5781 5780 5780 5779 5778 5776 5775 5775 5774 5773 5772 5771 5769 5768 5767 5767 5766 5765 5764 5764 5763 5762 5761 5760 5759 5758 5758 5757 5756 5755 5754 5752 5751 5749 5747 5746 5743 5741 5740 5740 5739 5738 5736 5735 5732 5730 5728 5725 5721 5719 5716 5713 5710 5707 5702 5698 5696 5694 5688 5685 5682 5676 5671 5670 5670 5671 5668 5663 5660 5655 5651 5648 5644 5640 5636 5632 5629 5626 5622
5783 5783 5783 5782 5782 5781 5781 5780 5779 5779 5778 5778 5776 5775 5774 5773 5772 5771 5770 5769 5768 5767 5765 5764 5764 5763 5762 5761 5761 5760 5758 5758 5757 5756 5755 5754 5753 5753 5752 5750 5749 5748 5746 5744 5742 5740 5738 5735 5735 5734 5733 5732 5730 5728 5726 5724 5720 5717 5714 5711 5707 5704 5701 5697 5692 5689 5687 5682 5678 5677 5673 5665 5662 5663 5664 5662 5657 5653 5648 5644 5641 5637 5632 5629 5625 5622 5619 5616
5781 5781 5781 5780 5780 5779 5778 5778 5777 5777 5776 5775 5774 5772 5771 5770 5769 5768 5767 5766 5764 5763 5762 5761 5760 5760 5759 5758 5757 5756 5755 5754 5754 5753 5752 5751 5750 5750 5749 5747 5745 5744 5742 5740 5738 5737 5735 5731 5730 5730 5729 5728 5726 5724 5722 5719 5717 5713 5709 5705 5702 5698 5694 5691 5687 5683 5679 5674 5669 5669 5668 5661 5657 5658 5657 5654 5650 5645 5641 5637 5633 5629 5625 5621 5618 5614 5611 5608
5779 5779 5778 5778 5777 5776 5776 5775 5774 5774 5773 5772 5771 5769 5768 5767 5766 5765 5763 5762 5761 5759 5758 5757 5757 5756 5755 5754 5753 5753 5752 5751 5750 5749 5748 5747 5747 5746 5745 5743 5742 5740 5738 5736 5734 5733 5731 5727 5725 5725 5724 5722 5721 5719 5716 5714 5712 5708 5703 5700 5697 5693 5688 5684 5682 5678 5673 5667 5661 5658 5660 5656 5652 5653 5652 5647 5643 5638 5634 5630 5626 5621 5617 5613 5610 5607 5603 5600
5777 5777 5776 5775 5775 5774 5773 5772 5771 5770 5769 5768 5767 5766 5765 5763 5762 5761 5759 5758 5757 5755 5755 5754 5753 5752 5752 5751 5750 5749 5748 5747 5746 5745 5744 5744 5743 5742 5741 5739 5738 5736 5734 5732 5730 5728 5727 5724 5721 5720 5719 5718 5716 5714 5711 5709 5706 5702 5698 5694 5690 5687 5682 5677 5676 5674 5668 5662 5655 5650 5649 5646 5644 5647 5645 5639 5635 5631 5627 5623 5619 5614 5610 5606 5603 5599 5596 5593
5774 5774 5773 5773 5772 5771 5770 5769 5768 5767 5766 5765 5764 5762 5761 5760 5758 5757 5755 5754 5753 5751 5751 5750 5749 5748 5748 5747 5746 5745 5744 5744 5743 5742 5740 5740 5739 5738 5737 5735 5734 5732 5730 5728 5726 5724 5722 5720 5717 5715 5715 5713 5711 5709 5706 5704 5701 5697 5692 5689 5685 5681 5675 5669 5666 5666 5663 5657 5650 5645 5639 5637 5639 5640 5637 5632 5628 5624 5620 5615 5611 5607 5602 5598 5595 5592 5588 5585
5772 5771 5770 5769 5769 5768 5767 5766 5765 5764 5762 5761 5760 5759 5757 5756 5754 5753 5751 5750 5749 5748 5747 5746 5746 5745 5744 5743 5742 5741 5740 5740 5739 5738 5737 5736 5735 5733 5732 5731 5729 5727 5725 5724 5722 5720 5717 5715 5712 5711 5710 5708 5705 5704 5702 5699 5696 5692 5687 5683 5679 5675 5670 5664 5658 5657 5656 5649 5645 5640 5630 5627 5634 5634 5628 5625 5621 5617 5613 5608 5603 5599 5594 5590 5587 5584 5580 5577
5769 5768 5767 5766 5765 5764 5763 5762 5761 5760 5759 5758 5756 5755 5753 5752 5750 5749 5748 5746 5745 5744 5743 5743 5742 5741 5740 5739 5738 5737 5736 5735 5735 5734 5733 5732 5731 5729 5728 5726 5724 5723 5721 5719 5718 5715 5712 5710 5707 5706 5706 5704 5701 5699 5697 5694 5690 5687 5682 5678 5674 5668 5664 5659 5652 5649 5646 5640 5639 5632 5619 5619 5628 5626 5619 5616 5614 5609 5605 5600 5595 5591 5586 5582 5579 5576 5573 5569
5766 5765 5764 5763 5762 5761 5760 5759 5758 5757 5755 5754 5752 5751 5750 5748 5747 5745 5744 5743 5742 5741 5740 5739 5738 5737 5737 5735 5734 5733 5732 5731 5731 5730 5729 5728 5727 5725 5723 5722 5720 5718 5716 5715 5713 5710 5708 5705 5702 5700 5699 5698 5696 5694 5690 5687 5684 5680 5676 5672 5667 5662 5657 5652 5648 5643 5636 5634 5634 5623 5610 5614 5620 5615 5610 5609 5605 5601 5597 5592 5587 5583 5578 5575 5571 5568 5565 5561
5763 5762 5761 5760 5759 5758 5757 5755 5754 5753 5752 5751 5749 5747 5746 5745 5743 5742 5741 5740 5739 5738 5736 5736 5735 5734 5733 5731 5730 5729 5728 5727 5727 5726 5725 5724 5722 5720 5719 5717 5716 5714 5712 5710 5708 5705 5703 5701 5698 5696 5693 5691 5689 5687 5684 5681 5678 5674 5670 5665 5660 5657 5652 5646 5643 5636 5628 5627 5627 5616 5606 5609 5611 5605 5602 5600 5596 5592 5588 5583 5579 5574 5570 5567 5564 5561 5557 5553
5760 5759 5758 5757 5756 5755 5753 5752 5751 5749 5748 5747 5745 5744 5742 5741 5740 5739 5737 5736 5735 5734 5733 5732 5731 5730 5729 5727 5726 5725 5724 5723 5723 5722 5721 5720 5718 5716 5714 5713 5711 5709 5707 5704 5702 5700 5698 5697 5695 5692 5689 5686 5684 5681 5678 5676 5674 5670 5665 5660 5655 5651 5647 5642 5636 5629 5623 5617 5614 5612 5605 5600 5601 5599 5594 5591 5587 5583 5578 5574 5571 5567 5563 5560 5556 5553 5548 5544
5757 5756 5755 5753 5752 5751 5750 5748 5747 5746 5745 5743 5742 5740 5739 5737 5736 5735 5734 5732 5731 5730 5729 5728 5726 5726 5725 5723 5723 5722 5720 5719 5718 5717 5717 5715 5713 5712 5710 5708 5706 5704 5702 5699 5697 5694 5691 5691 5690 5686 5685 5682 5678 5675 5673 5669 5667 5665 5659 5653 5648 5644 5641 5635 5628 5624 5619 5607 5602 5607 5603 5593 5592 5592 5586 5582 5578 5574 5570 5567 5563 5559 5556 5551 5548 5544 5539 5535
5754 5752 5751 5750 5748 5747 5746 5745 5743 5742 5741 5740 5738 5737 5735 5734 5733 5732 5730 5729 5728 5726 5725 5724 5723 5722 5721 5719 5719 5718 5716 5715 5714 5713 5712 5711 5709 5707 5705 5703 5701 5699 5697 5694 5691 5688 5685 5685 5684 5680 5679 5677 5672 5669 5667 5663 5660 5657 5652 5646 5643 5638 5633 5627 5621 5618 5612 5601 5595 5598 5596 5589 5587 5584 5579 5574 5570 5566 5563 5559 5555 5551 5547 5543 5538 5534 5530 5525
5751 5749 5748 5746 5745 5743 5742 5741 5739 5738 5737 5735 5734 5733 5732 5730 5729 5728 5726 5725 5724 5722 5721 5720 5719 5718 5717 5715 5715 5713 5712 5711 5710 5709 5708 5706 5704 5702 5700 5699 5696 5694 5691 5688 5686 5682 5679 5678 5677 5673 5673 5673 5668 5663 5661 5657 5654 5650 5645 5640 5636 5631 5625 5619 5615 5611 5605 5596 5591 5588 5585 5584 5581 5576 5571 5568 5563 5559 5555 5551 5547 5543 5538 5533 5529 5524 5519 5515
5747 5746 5744 5743 5741 5739 5738 5737 5736 5734 5733 5732 5731 5729 5728 5726 5725 5724 5723 5721 5720 5718 5717 5716 5715 5714 5713 5711 5710 5709 5707 5707 5705 5704 5702 5701 5700 5697 5695 5694 5691 5689 5686 5683 5680 5677 5673 5671 5670 5665 5664 5666 5663 5657 5654 5650 5646 5642 5638 5634 5629 5623 5618 5613 5607 5603 5597 5590 5587 5582 5577 5576 5574 5569 5565 5561 5556 5552 5547 5543 5539 5534 5529 5524 5519 5514 5509 5504
5744 5742 5741 5739 5737 5736 5734 5733 5732 5731 5729 5728 5727 5725 5724 5723 5722 5720 5719 5717 5716 5715 5713 5712 5711 5710 5708 5707 5706 5705 5703 5702 5701 5699 5697 5696 5694 5692 5690 5688 5686 5683 5680 5677 5674 5671 5667 5664 5662 5658 5656 5658 5655 5650 5647 5644 5639 5634 5630 5626 5622 5616 5611 5607 5601 5595 5589 5584 5581 5576 5571 5567 5565 5562 5558 5554 5549 5545 5539 5534 5530 5525 5519 5514 5509 5505 5499 5493
5741 5739 5737 5736 5734 5732 5731 5729 5728 5727 5726 5724 5723 5722 5720 5719 5718 5717 5715 5713 5712 5711 5710 5708 5707 5706 5704 5703 5702 5701 5699 5698 5696 5694 5693 5691 5689 5688 5685 5683 5680 5677 5674 5671 5668 5665 5661 5657 5655 5651 5648 5649 5647 5641 5639 5636 5632 5628 5623 5619 5615 5610 5604 5600 5595 5589 5584 5579 5573 5568 5564 5560 5557 5553 5549 5545 5541 5536 5531 5525 5519 5515 5510 5503 5498 5494 5489 5483